Temp
11 11 10 10 10 10 10 10 10 11 11 11 12 14 15 15 14 14 15 16 17 18 19 20 20 21 21 22 22 22 21 21 21 21 22 22 23 23 23 24 24 24 24 24 24 24 24 24 24 24 25 24 23 23 24 24 24 25 26 25 23 23 24 24 25 24 24 25 25 24 24 25 25 24 23 23 24 23 22 21 19 18 17 16 18 19 19 19
11 11 10 10 10 10 10 10 10 10 10 11 12 13 15 15 14 13 14 16 17 18 19 20 21 21 21 21 21 22 21 21 21 21 22 23 23 23 23 23 23 24 24 24 24 24 24 24 23 23 25 25 23 23 24 24 24 25 25 24 24 24 24 23 24 24 24 25 25 24 24 25 25 24 24 24 24 22 23 21 18 19 18 16 17 18 18 18
11 11 10 10 10 10 10 10 10 10 10 11 12 13 14 14 14 14 15 16 17 18 20 20 21 21 21 21 21 22 22 21 22 22 22 23 23 23 23 23 23 24 24 24 24 24 24 24 22 23 25 25 24 24 25 25 24 25 24 25 25 24 24 23 23 24 24 25 25 24 23 24 24 24 24 24 23 23 24 22 20 21 19 16 16 16 17 17
11 11 10 10 10 10 10 10 10 10 10 11 12 13 14 14 14 14 15 17 18 19 20 20 21 21 21 21 21 22 22 22 22 22 22 23 22 23 23 23 23 24 24 24 24 24 24 23 22 23 25 24 24 24 25 25 24 24 24 26 25 24 25 24 23 23 22 23 25 24 23 24 24 23 24 24 23 23 24 23 23 24 19 16 16 16 17 17
11 10 10 10 10 10 10 10 10 10 10 11 12 13 13 14 14 15 16 17 18 19 20 20 20 21 21 21 21 21 22 23 22 21 21 22 22 23 23 23 23 23 23 24 24 24 24 23 22 24 25 24 24 24 25 24 24 25 23 24 24 23 25 24 23 23 22 23 24 24 24 24 23 23 24 24 25 25 25 24 24 23 18 16 16 16 16 16
10 10 10 10 10 10 10 9 9 9 10 10 11 12 12 13 14 16 17 18 18 19 20 20 20 21 21 21 21 21 22 22 21 21 21 22 22 23 23 23 23 23 23 24 24 24 24 23 24 25 25 24 24 24 25 23 24 25 23 23 22 23 25 24 23 23 22 24 25 24 24 23 24 24 23 24 26 26 26 25 24 21 17 16 16 15 16 16
10 10 10 10 9 9 9 9 9 9 9 10 11 11 12 12 14 16 18 18 18 19 19 20 20 20 20 21 21 21 21 22 21 21 21 21 22 22 23 23 23 23 23 24 24 24 24 24 25 25 25 25 24 24 24 23 24 25 24 23 22 22 24 23 22 23 23 25 24 23 23 23 25 25 23 23 25 26 24 21 19 18 16 16 16 15 16 16
10 9 9 9 9 9 9 9 9 9 9 10 10 11 11 12 14 16 17 18 18 19 19 20 20 20 20 20 21 21 21 22 21 21 21 22 22 22 23 23 23 23 23 24 24 24 24 25 25 24 25 25 24 24 24 24 25 25 24 23 22 22 23 22 22 23 23 24 22 23 24 24 24 23 23 24 26 26 23 19 17 17 16 16 16 16 15 15
10 9 9 9 9 9 9 9 9 9 9 9 10 11 11 12 14 16 17 18 18 19 19 19 20 20 20 20 19 21 21 21 21 21 21 22 22 22 23 23 23 23 23 24 23 23 24 24 24 24 25 24 24 24 23 24 25 24 24 23 23 23 22 21 22 23 23 23 22 24 25 24 22 22 24 25 26 25 22 20 19 17 17 16 16 16 15 15
10 9 9 9 9 9 9 8 8 9 9 9 10 10 11 12 15 16 17 18 18 19 19 19 19 20 21 20 20 22 21 20 21 21 21 22 22 22 23 23 23 23 24 23 23 23 24 24 23 23 24 24 24 23 23 24 24 23 23 22 22 22 21 21 22 22 22 23 23 24 24 23 22 22 25 26 24 22 22 21 18 19 19 17 16 16 15 15
10 9 9 9 9 8 8 8 8 8 9 9 9 10 11 13 15 16 17 17 18 18 19 19 19 20 20 20 21 22 20 20 21 21 22 22 22 22 23 23 23 24 23 23 23 24 24 24 22 22 24 24 24 23 22 23 23 23 23 22 22 21 22 21 22 22 22 23 22 23 24 23 22 23 25 25 22 21 23 22 19 20 19 17 17 16 14 14
9 9 9 9 8 8 8 8 8 8 9 9 9 10 11 13 14 16 16 17 17 18 18 19 19 20 20 19 21 21 20 20 21 21 22 22 22 22 23 23 23 24 24 23 23 24 24 24 23 24 24 24 24 23 23 22 22 23 23 24 22 22 23 22 22 22 22 23 22 23 23 23 23 24 25 23 21 21 23 23 21 20 19 17 17 16 15 14
9 9 9 9 8 8 8 8 8 8 9 9 9 10 11 13 14 15 16 16 17 18 18 19 19 19 20 21 20 20 20 20 21 21 22 22 22 22 23 23 23 23 24 24 24 24 24 24 24 24 23 24 24 23 23 22 22 23 23 23 23 23 23 22 21 21 22 22 21 22 23 23 24 24 24 22 21 22 22 22 21 21 20 18 17 17 16 15
9 9 9 8 8 8 8 8 8 8 9 9 9 9 11 13 14 15 15 16 16 17 18 19 19 19 20 21 19 19 20 20 21 21 22 22 22 22 23 23 23 24 24 24 24 24 24 24 24 23 22 23 23 22 23 23 22 23 22 22 21 21 23 22 21 22 23 22 21 23 22 23 26 25 23 21 20 22 23 23 21 20 20 19 18 18 17 16
9 8 8 8 8 8 8 8 8 8 9 9 9 10 12 13 14 15 15 16 16 17 18 18 18 19 20 20 19 19 20 20 21 21 21 22 22 22 22 23 23 23 24 24 24 24 24 24 24 24 22 22 23 23 23 23 22 22 22 21 20 20 22 22 21 21 23 22 21 23 22 23 25 24 23 20 19 21 23 24 21 21 21 20 20 19 19 18
9 8 8 8 8 7 8 8 8 9 9 9 10 11 12 13 14 15 15 15 16 17 17 18 18 19 21 20 19 19 20 20 21 21 21 22 22 22 22 23 23 23 23 23 24 23 24 24 23 22 23 22 23 24 22 22 22 21 21 21 20 20 21 22 21 21 22 22 22 22 22 23 24 24 22 21 20 21 23 24 22 22 22 21 21 20 20 20
8 8 8 8 8 8 8 8 8 8 9 10 11 12 13 13 14 15 15 16 16 17 17 17 18 19 20 19 19 20 20 20 20 21 21 21 22 23 22 22 22 22 23 23 24 24 23 23 21 21 22 21 21 23 22 20 21 21 21 21 20 20 21 21 22 20 20 22 22 22 21 23 24 23 23 23 21 22 23 24 24 23 23 22 21 20 20 20
8 8 8 8 8 8 8 8 9 9 10 11 12 12 13 14 14 14 15 16 16 17 17 17 18 20 20 19 19 20 19 20 20 21 21 21 22 22 23 22 21 22 23 23 23 23 22 21 21 22 22 21 21 23 22 20 21 21 21 21 20 20 21 21 22 21 20 21 21 21 21 22 23 22 23 22 20 21 23 23 23 23 23 22 21 21 20 20
8 8 8 8 8 8 8 9 9 9 10 12 12 13 13 14 14 15 15 15 17 18 19 18 19 20 19 19 19 18 19 20 20 21 21 21 22 22 22 22 21 22 23 22 23 22 22 22 22 22 22 22 22 23 23 22 22 22 21 22 21 21 21 21 21 20 20 21 22 21 21 21 22 22 22 23 20 20 22 22 22 22 21 21 21 21 20 20
8 8 8 8 8 8 8 9 9 10 11 12 13 13 14 15 16 16 15 16 17 18 18 19 19 19 19 18 18 18 19 20 20 20 20 21 22 22 22 21 22 22 22 22 22 21 21 22 22 22 22 22 22 23 23 22 21 22 22 21 21 21 21 21 21 20 19 21 22 21 21 21 22 22 22 22 20 19 21 21 21 21 21 21 21 21 21 21
9 9 9 8 8 8 8 9 9 10 11 12 13 14 16 17 17 17 16 17 16 16 17 18 18 18 18 17 17 18 19 20 19 19 20 20 21 22 21 21 22 22 21 21 21 20 21 22 21 22 23 22 22 22 22 21 21 22 22 22 21 21 21 20 20 20 19 21 22 20 20 21 21 22 22 20 20 21 21 22 22 22 21 21 21 21 21 21
9 9 9 9 9 9 9 9 10 11 12 12 13 14 15 16 17 17 17 18 17 15 17 17 17 17 17 17 18 19 20 20 19 19 20 20 21 21 21 21 22 21 19 20 21 21 21 21 22 22 20 20 20 20 22 22 22 22 22 22 21 20 20 20 20 20 19 21 22 20 20 21 21 21 21 20 20 21 21 21 22 22 22 21 21 21 21 21
10 10 10 10 10 10 10 10 11 11 12 13 14 14 14 15 16 16 17 19 18 17 18 18 18 18 17 18 18 18 20 20 19 20 19 20 21 20 21 21 21 20 20 21 21 20 20 21 21 21 19 20 21 20 22 22 21 22 22 21 21 20 20 21 21 20 19 19 20 20 20 21 21 21 22 21 19 19 20 20 20 20 21 22 21 21 21 21
11 10 10 10 10 10 10 10 11 12 13 13 14 14 14 15 15 16 18 19 18 17 18 18 18 18 18 18 18 19 20 19 19 20 19 20 20 20 21 21 20 20 20 20 21 21 21 20 19 19 20 22 22 20 22 23 21 21 21 22 21 21 21 21 20 20 19 18 18 20 21 21 22 22 24 22 19 20 20 19 21 21 20 20 20 21 20 21
11 11 11 11 11 11 10 10 11 12 13 13 14 14 14 15 15 16 18 19 19 18 17 17 18 18 19 18 19 19 20 19 18 18 18 20 20 20 21 20 20 20 19 19 20 21 21 19 18 20 21 21 22 22 22 22 21 20 21 21 22 22 22 20 21 21 21 20 18 19 21 21 22 23 25 24 22 23 22 21 25 25 22 21 20 20 20 20
11 11 11 11 11 11 10 11 11 12 14 14 14 14 14 15 15 16 18 18 18 17 17 18 18 19 19 18 18 19 20 19 17 16 18 19 20 20 20 20 20 20 18 18 20 20 20 18 18 21 21 21 22 22 20 20 21 21 20 19 20 22 22 21 21 21 20 20 18 17 20 21 21 22 24 23 23 25 24 24 26 26 25 23 21 20 20 20
11 11 11 11 11 11 11 11 11 12 14 14 14 14 15 16 15 16 18 16 17 18 17 17 18 19 19 18 18 20 20 19 17 17 18 18 19 20 20 20 20 20 19 19 20 19 18 19 19 20 21 21 22 21 20 20 21 21 19 18 19 22 22 21 21 20 19 19 18 17 19 20 20 21 21 21 23 25 25 26 27 26 24 22 20 19 20 21
10 11 12 11 11 11 11 11 11 12 13 13 14 14 15 15 15 17 18 16 17 18 17 17 17 19 18 17 18 19 18 18 19 18 17 18 19 20 21 20 20 20 18 19 20 18 17 20 20 20 20 20 21 20 18 19 22 20 17 17 19 20 20 20 21 20 18 18 19 19 18 19 20 21 20 20 22 24 25 26 27 25 23 21 20 19 20 21
10 11 11 12 11 11 11 11 11 11 12 13 13 15 15 15 16 18 18 17 18 18 17 17 17 18 17 17 18 18 17 18 18 17 16 18 19 19 20 20 20 19 17 19 20 18 16 17 18 19 21 21 19 16 16 19 22 18 16 17 18 18 18 19 19 20 18 18 20 20 19 20 20 21 21 21 23 24 25 25 25 24 22 21 20 20 21 21
10 11 11 11 11 11 11 11 11 11 12 13 13 14 15 16 17 17 16 17 19 17 16 16 17 17 17 17 17 17 17 17 16 17 17 19 19 18 19 18 19 20 18 18 18 17 16 15 15 17 19 18 17 15 15 17 18 17 18 19 19 19 19 18 18 18 19 19 19 18 17 19 20 21 22 22 22 23 24 25 24 24 23 21 21 21 22 22
10 11 11 11 11 11 11 11 11 11 12 13 13 14 16 16 17 16 15 18 19 16 15 16 16 16 17 17 17 16 17 16 16 18 18 18 19 19 19 18 19 19 18 18 17 16 16 17 16 16 15 15 17 17 16 15 16 18 20 20 20 19 19 19 18 18 19 20 19 16 15 17 19 20 22 22 22 21 21 24 25 25 24 22 22 22 22 22
9 10 10 10 11 11 11 11 11 12 12 13 14 15 17 16 15 16 16 18 19 16 15 16 15 16 16 17 17 16 16 16 16 17 17 17 18 18 19 19 19 18 18 18 18 17 18 17 16 16 15 16 19 19 17 17 17 19 20 20 20 19 19 19 18 18 19 19 17 15 15 18 18 20 21 22 22 21 20 22 23 24 24 23 24 23 21 21
9 10 10 10 11 11 11 12 12 12 13 13 14 16 16 15 15 16 16 17 18 16 16 16 15 16 16 17 16 16 17 17 16 17 17 17 17 18 18 18 18 19 18 17 17 18 18 17 15 17 17 16 19 19 19 19 18 19 20 20 20 19 18 19 18 16 18 18 16 15 16 19 19 20 21 21 22 21 20 21 22 22 23 24 23 23 22 22
9 9 9 10 10 10 11 12 12 12 13 13 15 16 15 15 15 16 16 16 16 16 16 16 15 16 16 17 16 16 17 16 16 17 17 17 17 17 17 17 17 18 18 17 17 17 18 18 17 18 18 17 18 19 19 19 18 18 18 18 19 19 19 19 19 19 19 18 16 15 18 20 20 21 20 19 20 20 19 20 21 21 21 21 21 22 23 23
9 9 9 10 10 10 11 11 12 13 13 13 15 15 14 15 15 16 17 16 16 16 15 15 15 15 16 16 16 17 17 16 15 16 16 16 16 16 17 17 17 18 18 17 16 16 17 18 17 16 16 17 18 18 18 19 19 16 16 17 19 19 20 19 17 17 18 17 17 17 18 19 19 21 20 19 20 20 19 20 21 21 20 20 22 23 24 23
8 9 9 10 10 10 11 11 12 12 13 13 14 14 14 15 15 16 16 17 16 16 15 15 15 15 15 16 16 16 17 16 16 16 16 16 16 16 17 18 17 17 19 19 17 16 17 17 16 15 16 16 17 17 17 18 19 17 16 18 17 16 19 19 16 14 15 18 18 17 18 19 19 21 22 20 21 22 21 21 21 21 21 22 23 24 24 23
9 9 9 9 10 10 11 11 12 12 13 13 14 14 14 15 14 14 15 15 16 16 15 15 15 15 15 15 15 16 16 16 15 16 16 16 16 17 16 17 18 17 19 20 18 17 18 18 15 15 17 15 14 16 17 16 17 18 18 18 16 15 18 19 18 17 16 18 18 16 18 20 19 21 21 21 22 23 22 21 22 21 22 23 23 23 23 22
8 9 9 9 9 10 11 11 11 12 12 12 13 13 13 14 13 12 13 14 15 16 16 16 16 16 15 15 15 15 16 17 15 15 16 16 17 18 17 18 18 18 18 20 19 18 18 19 16 13 15 15 14 16 17 15 15 17 17 17 17 18 19 18 18 19 17 17 18 17 17 18 19 20 21 22 24 24 22 21 22 22 22 23 23 23 23 22
8 9 9 9 9 10 11 11 11 12 12 11 12 12 12 13 13 12 13 13 15 16 17 16 16 15 15 15 15 15 16 16 15 15 16 16 17 17 17 18 19 17 18 19 20 18 18 19 17 13 13 15 15 16 17 16 15 16 16 16 17 18 19 18 18 18 18 18 18 18 18 18 19 19 22 23 24 25 22 21 22 22 22 22 22 22 22 21
8 9 9 9 9 9 10 10 11 11 11 10 11 11 12 13 13 13 13 13 14 15 15 16 15 16 15 15 15 15 16 16 15 15 16 16 17 17 17 18 19 17 17 18 19 18 18 18 18 14 13 14 16 16 16 16 17 16 17 17 17 16 17 17 17 16 18 19 18 18 19 19 19 19 22 24 23 23 22 21 22 21 21 22 21 21 21 20
7 9 9 8 9 9 9 10 10 10 9 9 10 11 11 13 13 13 12 13 14 13 14 14 15 15 16 15 15 15 15 15 15 15 16 16 17 18 17 18 19 17 16 17 18 18 18 17 17 15 13 15 16 15 15 16 17 17 17 17 17 17 16 17 17 15 16 18 18 18 18 19 20 20 22 23 22 21 21 21 21 20 20 21 20 20 20 20
7 9 8 8 9 9 10 10 10 10 9 9 10 11 12 12 13 13 13 13 13 13 13 14 14 14 15 15 15 15 15 15 15 15 16 16 17 18 17 17 18 18 17 17 17 18 17 16 16 15 14 15 15 14 13 14 16 16 17 17 17 17 17 19 18 16 16 16 16 17 17 19 21 21 21 22 20 20 20 20 20 20 19 19 19 18 18 18
7 8 8 8 8 9 10 10 10 10 9 10 11 11 12 12 12 13 13 13 13 13 13 14 14 14 14 14 14 15 16 16 15 15 16 16 17 17 16 16 17 17 17 17 17 17 17 17 17 16 15 14 15 14 13 13 15 16 16 16 16 16 17 18 17 17 18 17 17 17 17 19 20 19 19 19 19 19 18 18 19 20 19 19 19 19 19 19
7 7 8 8 8 9 10 10 10 10 9 10 11 11 11 12 12 13 13 13 13 13 13 13 14 14 14 13 14 15 15 16 15 15 15 16 16 16 16 16 17 17 17 18 18 18 18 17 17 16 15 15 15 15 15 14 15 16 16 16 16 17 16 16 15 16 17 18 18 17 17 19 19 17 17 18 19 20 19 18 19 20 21 21 21 21 21 20
6 7 8 8 8 8 9 9 10 10 10 10 10 11 11 11 12 13 12 13 13 13 13 14 14 14 14 13 14 14 14 15 15 15 14 15 16 15 15 15 17 17 17 16 17 18 18 17 17 16 16 15 15 15 15 15 15 15 16 16 16 16 16 16 17 16 17 17 17 17 18 19 19 18 19 19 20 22 21 20 20 21 20 20 20 21 21 21
6 7 7 7 7 7 7 8 9 10 10 10 10 11 11 11 12 13 12 13 13 13 14 13 13 14 13 13 14 14 14 14 14 14 14 15 15 15 14 15 16 16 15 15 16 17 17 16 16 17 16 16 16 16 15 15 16 16 16 16 15 15 16 17 17 16 17 17 16 16 17 18 19 19 20 19 19 20 20 20 21 20 20 19 19 20 20 20
6 7 7 7 7 7 7 7 8 9 10 10 10 11 11 11 12 12 12 13 13 13 13 13 13 13 13 13 14 14 14 13 13 14 14 14 15 14 13 14 15 15 15 15 15 16 17 16 16 16 17 16 16 16 14 14 16 16 16 15 15 14 15 16 16 16 17 16 16 16 17 17 18 18 19 19 19 19 19 19 20 20 19 19 19 18 18 18
5 6 6 7 7 7 7 7 8 8 9 10 10 11 11 11 11 12 12 12 12 12 13 12 12 13 13 13 13 13 13 13 13 13 13 13 14 14 13 14 14 14 15 15 15 16 17 17 15 15 15 15 15 15 14 15 16 16 15 15 14 14 14 14 15 16 16 16 16 17 16 16 17 18 18 18 19 19 18 18 18 18 18 18 18 18 18 18
5 5 5 6 7 7 7 8 8 8 8 9 9 10 11 11 11 11 12 12 11 12 13 12 12 12 12 13 13 13 13 13 13 13 13 13 13 13 14 15 14 13 14 16 15 15 16 16 15 15 15 14 14 14 14 15 15 14 15 15 15 15 14 14 14 15 15 15 15 15 14 14 16 16 16 17 17 18 17 17 16 16 16 17 18 18 18 17
4 5 5 6 6 6 7 7 8 7 8 8 8 9 10 11 11 11 12 12 11 11 12 12 12 12 12 12 12 13 13 14 14 13 13 13 12 12 14 14 13 12 13 15 15 14 15 15 14 14 15 14 14 14 13 13 14 14 14 14 14 15 14 13 13 13 13 14 14 14 13 14 15 16 16 16 16 17 17 17 16 15 16 17 17 17 17 15
4 5 5 6 6 6 7 7 7 7 7 8 8 8 9 10 11 11 12 12 12 12 12 12 12 12 11 11 12 13 13 14 14 14 14 14 13 13 14 13 13 13 13 13 14 14 15 14 13 14 14 14 14 14 13 12 13 13 13 13 13 13 13 13 13 13 14 14 14 14 13 14 16 17 17 16 15 16 17 16 15 15 16 15 15 14 13 12
4 4 5 5 5 6 6 7 7 7 7 8 8 8 9 9 10 11 11 12 12 13 12 12 12 12 11 11 12 13 14 13 13 13 13 13 13 13 14 13 12 14 14 13 13 13 14 13 13 13 12 13 14 14 13 13 12 12 13 14 14 13 13 13 13 13 14 14 14 14 14 16 16 16 16 16 15 15 15 14 14 14 14 12 11 11 11 11
Height
779 780 781 783 783 783 782 782 781 782 784 785 786 786 787 788 788 789 790 790 791 791 792 793 793 793 793 793 794 794 795 795 795 796 796 796 796 797 797 797 797 798 799 800 801 801 802 803 803 804 805 806 808 808 807 806 808 811 821 827 832 836 831 825 827 827 824 825 826 826 825 827 830 828 825 825 827 830 831 832 833 831 830 829 827 826 828 833
777 778 780 781 782 782 782 781 781 782 784 784 785 785 786 787 788 789 789 790 790 791 791 792 792 792 792 793 793 794 794 794 795 795 795 795 795 796 796 796 797 798 799 800 801 801 802 804 803 804 806 808 810 809 809 808 809 815 825 829 831 832 827 823 823 822 823 822 823 825 826 826 827 827 825 828 832 832 832 835 836 834 832 832 829 829 831 833
776 777 779 780 781 781 781 781 781 782 783 784 784 785 786 786 787 788 788 789 789 790 790 791 792 792 792 792 793 793 793 794 795 795 793 794 795 795 796 796 797 798 799 800 801 801 802 803 803 805 808 811 811 811 811 810 811 817 824 828 828 826 823 823 822 821 821 820 822 825 826 826 826 826 825 829 833 833 831 833 835 834 835 834 832 832 832 834
776 776 778 779 780 781 781 781 781 782 783 783 784 785 786 786 786 787 787 787 788 789 789 790 791 791 791 791 792 793 792 795 796 793 792 793 794 795 795 796 797 798 799 800 800 801 802 802 803 805 809 813 813 813 813 812 813 817 821 825 824 823 823 821 820 820 821 820 821 823 826 826 825 826 826 828 833 834 830 827 826 827 831 834 834 833 833 834
775 776 777 779 780 781 781 781 781 782 782 783 784 785 785 786 786 786 786 786 787 788 788 789 790 790 791 790 792 791 792 800 797 791 792 793 793 795 795 796 797 798 799 799 800 800 801 802 803 806 810 814 815 815 815 812 812 818 823 823 822 822 822 820 819 820 821 821 822 824 825 824 824 825 826 827 830 829 824 821 819 821 825 828 829 831 833 834
775 775 777 778 779 780 780 781 781 781 782 783 784 784 785 785 785 785 785 786 786 787 788 789 789 789 790 790 791 790 794 800 794 790 793 792 793 795 795 796 797 798 798 799 799 800 802 803 805 809 812 814 817 816 815 813 812 819 825 823 822 822 820 820 820 821 821 821 822 823 822 823 825 825 826 826 824 820 816 815 817 819 822 823 826 829 831 832
774 775 776 777 778 779 780 780 781 781 782 783 783 783 784 785 785 785 785 785 786 786 787 788 788 789 789 790 791 791 794 795 791 791 792 792 794 794 795 796 797 797 798 799 799 800 802 804 807 810 813 815 817 816 814 814 813 818 824 822 822 822 820 821 821 821 821 820 822 822 821 823 824 825 826 825 820 816 815 815 816 818 821 824 826 828 828 829
774 774 775 776 778 778 779 780 780 781 781 782 782 783 784 784 783 783 784 785 785 786 786 787 788 788 789 790 791 794 795 792 790 791 791 792 793 794 795 796 796 797 797 798 799 800 802 805 807 809 813 815 814 815 814 815 816 818 822 822 822 822 821 822 822 821 821 820 822 822 822 823 824 825 825 822 817 815 815 816 816 818 822 825 826 827 828 828
773 774 774 776 777 778 779 779 780 780 780 781 781 782 782 782 782 782 783 784 784 785 786 786 788 788 789 789 791 795 794 790 789 790 791 792 793 793 794 795 796 797 797 798 798 799 802 805 807 806 810 813 811 814 815 817 820 818 820 822 822 822 822 823 822 821 822 822 822 823 824 824 824 825 823 816 814 815 816 817 818 820 823 824 825 825 826 827
772 773 774 775 776 777 777 778 779 779 779 780 780 781 781 781 781 781 781 783 783 784 785 786 787 788 789 789 792 795 791 788 790 790 791 791 792 793 794 794 795 796 797 798 798 799 801 803 804 803 806 811 812 815 816 816 818 817 820 823 823 825 824 824 823 823 823 823 823 824 825 825 824 827 822 813 812 815 816 819 820 819 821 822 823 823 824 825
771 772 772 773 774 775 776 777 777 778 778 779 779 780 780 780 780 780 781 781 782 783 784 785 786 787 788 789 792 794 789 788 790 790 791 791 792 793 793 794 794 796 796 797 798 798 799 800 801 802 806 809 811 816 817 814 816 817 819 823 826 826 825 825 824 824 824 824 824 824 826 826 826 826 819 812 814 815 815 818 820 819 820 821 821 822 823 822
770 771 771 772 773 774 775 776 776 776 777 777 778 778 779 779 779 779 780 781 782 783 784 784 786 786 787 790 792 791 789 789 790 790 791 791 792 793 793 794 794 795 796 797 798 797 799 799 799 803 807 808 813 818 816 814 816 818 818 823 828 827 826 826 825 825 825 826 825 825 829 830 827 822 814 813 816 815 816 817 819 819 819 820 820 821 822 821
770 770 770 771 772 773 774 774 775 775 776 776 777 778 778 778 778 779 780 780 781 782 783 784 785 786 787 790 790 789 789 789 790 790 791 791 792 792 793 794 794 795 796 796 797 797 799 799 799 803 805 808 814 816 813 815 817 819 821 824 830 831 829 828 827 826 826 827 825 828 835 830 822 819 814 816 817 816 818 817 818 818 818 819 820 820 820 819
769 769 769 770 771 772 773 773 774 774 775 776 777 777 777 777 778 779 779 780 781 782 783 784 785 786 787 790 789 788 789 789 790 790 790 791 791 792 793 793 794 795 796 796 797 797 798 798 798 801 805 808 811 812 815 819 820 823 826 830 837 838 832 828 827 827 827 828 825 828 837 829 818 817 815 816 817 816 816 816 818 818 818 819 818 819 818 817
768 768 769 769 770 771 772 772 773 774 775 775 776 776 776 777 778 778 779 780 781 782 783 784 785 786 788 789 788 788 789 789 790 790 790 790 790 791 792 793 794 795 796 797 797 798 798 798 799 804 809 808 809 814 821 824 824 828 831 837 845 841 833 829 827 827 827 827 826 829 837 830 819 816 815 816 816 816 815 815 817 817 817 817 817 817 815 814
767 767 767 768 769 770 771 772 773 773 774 775 775 775 776 777 777 778 780 780 781 783 783 785 785 786 789 790 788 788 790 790 790 790 790 790 790 791 792 793 794 795 796 797 797 798 798 798 803 808 810 811 814 818 826 831 831 833 834 837 843 841 838 833 828 828 827 827 828 830 834 829 821 816 815 816 816 816 816 815 816 816 815 815 814 814 812 811
766 766 766 767 768 770 771 772 772 773 773 774 774 775 776 777 778 779 780 781 782 783 783 785 785 786 789 789 788 789 788 789 789 789 790 790 790 791 792 793 794 795 796 796 797 798 798 802 809 810 811 817 820 819 829 840 838 837 838 837 840 841 839 834 830 830 829 829 830 831 834 827 819 816 814 815 816 817 816 814 814 814 813 812 812 811 810 809
765 765 766 767 768 770 771 771 772 772 772 773 774 775 776 778 779 780 781 782 783 784 785 786 786 790 792 788 787 787 786 788 789 789 790 790 791 791 792 792 794 795 797 799 800 801 803 807 811 813 817 821 822 821 829 838 834 834 836 835 838 840 838 835 832 831 830 830 832 834 836 828 820 819 816 815 817 818 815 813 812 811 811 810 810 809 807 806
764 765 765 767 769 770 771 771 771 771 772 773 774 775 777 779 780 781 781 782 782 784 787 786 785 790 790 784 784 785 785 787 789 789 790 790 791 791 792 792 794 796 801 806 805 805 807 811 815 819 822 822 821 820 822 825 824 826 830 831 833 834 836 836 833 832 832 832 832 833 833 829 823 820 816 813 816 818 815 813 812 810 809 808 808 806 805 804
764 765 765 767 768 769 770 770 770 771 771 772 773 774 777 778 781 784 784 782 781 782 783 782 782 784 783 782 783 784 786 788 789 790 790 790 790 791 793 794 797 799 804 808 809 809 810 815 820 820 819 818 818 818 819 823 825 826 829 832 834 834 833 835 833 832 833 832 831 832 832 830 824 818 814 813 816 817 814 812 810 808 807 805 805 803 801 800
763 765 766 767 768 769 770 770 770 770 771 772 772 772 773 774 777 782 783 782 781 780 780 780 781 781 781 782 783 783 785 789 790 790 790 790 790 793 796 798 801 806 809 810 811 811 813 820 821 814 814 816 817 819 820 824 827 826 828 831 835 837 834 834 834 831 833 832 830 834 832 825 822 817 813 813 815 812 808 808 805 803 803 802 801 800 797 795
764 764 766 767 768 769 769 769 770 770 771 772 772 771 771 771 771 773 776 780 781 780 780 781 781 782 782 782 783 782 784 790 793 791 790 790 791 795 799 801 805 810 812 812 813 816 821 822 816 812 818 820 821 822 820 822 826 826 829 830 833 838 837 836 834 831 833 832 829 834 832 821 818 817 811 809 809 805 803 803 801 799 799 799 797 796 795 793
764 765 766 767 768 769 769 769 769 769 770 771 771 771 771 770 771 771 772 777 782 782 781 781 781 783 784 783 783 783 784 789 793 791 790 791 792 796 798 803 807 811 813 812 815 823 826 820 813 815 820 818 821 825 822 822 827 827 829 830 833 840 839 834 833 833 835 836 834 834 831 820 813 812 805 804 807 804 802 801 799 798 796 793 792 792 792 790
763 765 766 767 768 768 769 769 768 769 770 770 771 770 771 771 771 771 771 776 782 782 780 781 782 782 783 782 781 783 785 788 790 790 789 790 794 797 798 803 808 812 814 813 814 819 819 817 817 817 818 816 819 825 823 822 829 832 830 829 831 834 835 835 835 835 836 839 838 833 828 817 810 810 801 799 805 801 800 800 795 795 794 792 791 789 788 787
763 765 765 766 768 768 768 769 768 769 769 770 771 770 771 771 771 771 772 779 784 783 782 781 781 781 779 780 781 782 784 787 789 789 788 789 793 797 799 801 806 813 817 817 817 817 816 817 818 816 817 819 819 822 823 823 829 833 830 828 828 827 830 835 834 834 836 840 841 839 835 822 811 810 803 798 800 796 797 797 790 788 789 789 789 786 785 786
763 764 765 766 767 767 769 768 768 769 769 770 770 770 771 770 772 771 773 788 791 785 785 783 781 780 777 780 781 781 787 790 789 788 789 790 791 793 799 803 805 811 817 817 817 818 818 818 817 815 817 820 820 822 825 826 830 833 831 833 832 827 829 833 832 835 840 843 845 845 844 834 817 809 806 804 802 796 793 792 786 784 784 784 786 784 784 785
762 764 764 765 766 767 768 767 768 768 769 771 769 770 771 769 773 769 777 802 797 779 783 785 781 778 776 779 779 782 791 791 789 790 789 790 791 791 799 806 805 808 812 815 819 821 819 818 818 817 819 822 822 823 826 826 828 832 833 835 833 828 830 833 833 837 844 845 846 846 845 845 831 813 811 810 804 797 792 789 784 782 783 784 785 785 783 783
762 763 763 765 766 767 767 766 767 767 768 770 768 770 770 770 773 770 783 808 794 772 777 781 778 775 776 779 779 783 788 786 789 794 790 790 792 792 798 803 804 808 810 813 820 823 820 817 818 818 821 824 823 825 829 826 826 832 836 837 835 832 834 836 836 841 850 849 845 845 846 849 836 815 813 813 805 800 794 788 784 783 786 786 784 785 783 783
762 762 763 765 765 766 767 766 766 767 768 768 768 770 770 771 772 773 791 800 779 768 774 776 776 778 778 781 783 785 786 786 790 793 791 791 792 792 798 802 802 808 813 812 815 821 823 822 821 818 818 822 826 832 833 825 824 833 838 838 837 839 840 841 842 842 850 851 844 842 844 846 833 811 809 811 803 799 793 788 787 786 788 787 785 784 782 783
762 762 763 764 765 766 766 767 767 766 767 767 769 770 770 772 774 786 804 791 768 772 778 776 778 779 780 784 788 788 787 790 792 791 793 793 792 793 797 801 802 807 814 816 818 823 825 824 824 822 820 824 829 834 836 830 829 832 833 833 835 840 841 844 849 846 849 850 844 846 847 847 839 815 805 805 799 796 794 790 789 786 787 787 786 785 783 783
762 762 763 763 764 765 766 767 767 766 767 767 769 770 770 776 781 794 800 775 762 778 781 779 781 779 779 783 788 791 791 793 793 792 795 797 796 797 799 803 805 811 818 819 822 827 824 823 825 825 826 829 827 829 834 835 834 831 829 832 836 843 846 848 853 852 853 849 845 855 858 852 844 820 802 801 799 799 799 793 790 787 787 788 786 785 785 785
762 762 763 763 764 764 765 767 766 766 767 767 769 770 772 784 790 789 782 765 764 777 777 778 781 780 780 781 786 791 792 795 795 793 796 799 801 800 800 802 804 815 825 824 825 828 824 825 828 826 826 826 822 828 835 834 834 832 832 837 843 852 856 853 857 860 858 851 849 857 856 846 837 816 801 798 793 797 800 794 791 790 788 788 786 785 786 786
762 762 762 763 763 764 765 766 766 767 766 767 769 770 776 789 788 777 774 770 768 771 770 773 778 779 781 783 788 790 789 794 795 794 796 798 802 803 801 802 801 807 818 824 828 829 828 830 830 826 825 823 820 826 834 835 835 833 832 836 842 855 862 858 864 868 859 851 853 859 853 839 824 807 799 796 790 793 798 793 792 792 789 788 786 786 786 785
762 762 763 763 763 764 765 766 767 766 766 767 768 773 782 786 778 768 770 771 769 770 771 773 777 782 782 783 787 786 787 795 795 794 798 800 805 806 803 805 804 802 809 822 828 828 830 831 826 822 822 821 819 820 822 826 832 834 833 836 836 841 848 850 853 852 848 849 855 858 846 826 810 800 797 797 793 795 797 793 793 791 790 791 789 788 785 784
762 762 763 763 763 764 765 766 766 766 767 767 769 777 781 776 769 767 767 767 768 771 774 774 778 785 787 786 787 783 784 793 796 796 799 801 803 803 801 802 803 802 805 818 827 828 830 826 820 820 820 818 818 819 818 822 831 839 840 839 835 831 833 845 854 852 852 854 853 850 837 818 808 798 793 795 792 793 795 793 792 792 792 792 789 786 785 785
763 762 763 764 763 764 765 765 766 767 766 768 773 777 772 765 765 766 762 762 765 770 777 780 781 787 790 789 789 786 784 789 796 799 800 801 800 800 798 795 796 798 796 805 819 826 828 825 822 823 822 819 819 819 820 822 826 837 840 835 836 834 829 840 858 864 861 853 845 842 830 816 812 799 789 792 790 787 792 793 792 792 791 790 788 785 786 786
762 762 763 764 764 765 765 765 767 767 767 770 773 772 767 763 766 767 764 763 764 765 773 780 782 785 789 791 791 788 785 788 795 797 799 802 798 794 796 792 790 792 789 792 807 813 816 821 825 825 822 823 825 822 822 823 824 831 835 830 834 839 834 834 846 856 861 856 843 839 831 819 817 808 793 793 791 786 791 793 792 792 791 790 788 786 786 787
762 762 763 764 765 765 765 766 768 767 769 773 771 769 769 767 767 769 767 765 763 763 768 775 778 779 784 788 789 788 785 788 795 797 797 800 792 785 789 789 787 789 787 787 796 802 805 813 825 830 826 825 826 823 824 827 826 826 827 826 830 835 837 840 844 846 855 857 843 835 834 824 817 809 796 790 787 784 790 793 790 791 792 790 788 787 788 788
762 762 763 763 765 766 765 767 768 767 773 777 773 770 772 770 768 768 767 766 765 764 766 769 773 777 781 782 784 787 785 786 793 795 793 795 790 782 781 782 783 787 787 786 792 799 803 808 820 830 830 827 826 824 826 828 828 827 827 828 830 831 832 837 841 840 843 850 844 834 828 816 807 803 792 786 783 781 789 795 792 792 791 790 789 789 790 790
762 762 763 763 764 766 766 767 768 772 778 779 775 774 773 769 768 767 766 767 767 767 767 768 770 773 777 780 781 783 784 785 790 791 788 788 787 783 780 778 780 786 788 788 792 797 803 806 816 828 833 830 825 822 823 822 823 825 826 829 831 833 836 835 839 840 837 839 844 840 826 808 800 796 784 781 783 783 789 792 791 791 791 790 791 790 790 791
762 762 763 763 764 765 766 769 771 776 782 781 776 775 773 768 767 768 767 767 767 769 770 770 770 770 772 777 778 779 782 785 788 788 786 785 784 782 778 775 776 783 790 794 794 794 801 808 816 828 832 826 818 818 819 816 814 816 819 823 823 826 833 836 840 843 839 835 837 839 829 804 791 789 782 781 785 785 788 789 790 792 791 791 791 790 790 790
762 762 763 763 764 764 766 771 772 774 781 780 774 772 770 768 768 767 767 768 768 769 770 771 772 772 771 772 774 776 779 783 787 786 783 783 781 777 776 774 774 779 785 792 793 790 798 808 815 822 826 822 818 821 823 819 815 816 817 818 819 821 823 826 833 837 837 838 837 840 833 802 781 784 783 782 786 787 789 791 791 792 792 791 791 790 790 788
763 763 763 763 764 763 766 772 772 773 776 774 770 769 768 768 768 766 767 769 769 770 771 771 771 772 772 773 774 775 775 779 785 784 780 781 779 775 776 776 776 779 782 787 792 792 796 804 810 817 822 820 818 820 822 821 818 819 819 818 820 822 819 820 826 828 828 831 832 839 835 803 782 787 788 787 791 791 793 794 791 789 788 786 785 784 784 783
765 765 764 763 764 764 766 768 769 771 772 770 770 770 769 768 768 766 768 769 769 771 772 771 771 771 773 774 773 773 773 775 780 782 780 780 778 776 778 777 776 778 779 781 784 786 793 800 807 816 823 824 823 822 821 821 820 818 817 817 817 818 822 826 829 831 828 822 821 830 825 800 789 794 792 791 790 785 788 791 787 785 783 781 782 782 783 785
766 766 765 765 764 764 766 765 764 767 769 768 770 770 770 770 766 764 767 768 768 769 770 770 770 769 772 774 773 774 775 774 776 780 781 780 778 777 778 777 776 776 777 779 777 778 789 796 799 808 817 821 821 818 815 815 819 818 815 815 816 817 820 821 824 830 827 819 820 822 811 794 791 792 789 788 787 782 783 786 783 783 785 786 787 788 788 789
766 766 766 768 767 766 767 766 764 765 766 767 769 768 769 771 766 762 766 767 767 767 767 769 770 770 773 774 773 774 777 777 777 779 781 780 779 780 781 779 777 777 779 780 778 779 788 793 792 794 800 803 802 802 805 808 810 812 811 812 815 816 815 816 821 824 819 817 821 816 804 796 791 790 790 789 788 787 787 787 786 787 790 791 792 791 792 791
768 766 765 768 768 768 769 768 767 765 763 765 767 766 767 769 766 765 766 766 766 767 768 769 769 770 773 774 774 775 777 779 779 779 782 781 779 782 784 780 778 779 780 780 780 782 787 791 793 792 792 796 795 797 805 806 802 803 806 809 814 816 816 817 817 811 809 817 816 805 804 803 791 786 793 792 789 790 790 791 791 790 791 792 792 793 793 792
769 766 764 764 765 767 768 767 766 766 765 765 764 763 765 768 767 766 766 766 767 766 768 770 769 768 769 770 773 776 778 780 781 780 782 782 780 782 783 781 781 781 779 779 781 782 784 789 794 794 796 799 799 800 804 803 801 803 806 809 812 815 816 815 810 803 805 812 805 797 805 805 788 784 793 793 789 789 790 792 792 792 793 793 793 792 790 790
769 768 766 764 763 765 765 763 765 768 767 767 766 763 763 765 765 764 763 767 769 767 767 769 768 768 769 769 771 775 777 778 779 780 781 781 783 784 782 781 783 784 781 779 781 783 784 788 794 796 798 800 800 803 803 802 805 807 807 807 809 810 810 809 807 806 808 809 803 804 812 806 791 789 794 793 791 789 789 791 793 795 796 794 792 790 789 791
768 768 766 765 765 765 765 764 765 769 768 768 769 766 762 761 761 761 760 763 766 767 766 766 765 767 770 770 771 773 772 772 774 777 779 781 785 786 783 781 783 787 786 782 783 784 784 790 795 795 798 799 798 802 806 806 806 807 807 808 807 805 807 810 811 812 813 811 807 809 813 803 789 788 790 790 792 790 787 789 794 797 796 792 791 792 792 794
766 765 765 766 766 765 766 765 765 769 770 768 767 765 762 760 758 758 759 758 758 760 762 762 763 768 771 773 773 771 768 769 771 773 775 777 780 779 779 781 784 787 788 788 787 785 786 793 797 797 801 800 794 798 806 808 810 811 809 805 803 803 806 808 808 808 807 806 806 811 811 797 784 785 786 785 790 792 789 791 795 795 793 793 795 796 797 797
765 766 765 767 768 767 766 766 766 769 767 763 761 760 760 759 757 758 760 758 755 756 757 758 761 767 772 774 771 766 765 767 770 772 773 773 774 775 776 779 782 781 783 789 792 790 791 794 797 801 805 801 795 797 802 806 812 811 799 792 794 798 800 801 803 801 799 801 804 806 799 787 783 787 787 785 788 792 793 794 795 794 795 798 800 799 799 798
Wind_Speed
9 9 10 10 9 8 7 6 6 6 5 5 7 9 11 11 9 9 9 10 10 9 9 9 9 7 6 4 2 2 3 4 5 6 6 6 8 6 4 5 5 5 6 5 4 4 1 2 3 1 1 1 0 1 1 2 2 4 3 3 1 2 1 3 6 6 4 5 6 5 5 8 4 2 0 2 6 4 4 6 4 5 7 3 1 14 29 31
7 8 10 10 9 8 7 6 6 6 6 6 8 9 11 11 9 9 9 9 9 9 9 9 9 7 6 4 2 2 3 5 4 4 7 8 8 6 6 7 6 6 5 4 4 3 2 1 2 3 3 1 1 1 1 1 2 3 3 3 3 5 2 3 5 5 3 5 8 5 5 6 6 5 2 2 1 2 5 4 5 5 6 6 8 21 29 29
7 8 10 10 9 8 7 7 6 6 6 7 8 9 10 10 10 9 9 9 9 9 9 9 9 7 5 4 2 2 5 5 2 3 7 10 6 6 7 8 7 6 5 4 4 3 2 1 2 3 4 1 2 2 1 1 1 2 4 3 4 6 3 2 3 3 4 5 9 5 4 3 3 4 2 4 5 3 4 3 1 0 2 3 7 18 26 26
8 8 10 11 9 8 7 7 6 5 6 7 8 9 9 9 9 9 8 9 8 8 9 8 8 7 5 4 2 4 5 4 1 3 7 9 7 7 9 8 7 5 4 4 4 3 2 1 0 3 4 1 3 3 0 1 1 2 4 3 5 3 2 1 1 1 3 4 8 6 5 2 3 3 2 6 6 3 6 7 7 8 9 9 7 14 21 22
8 7 9 11 10 9 8 7 6 5 6 6 7 8 8 8 9 9 9 8 8 8 8 8 8 6 5 3 3 4 4 4 2 2 6 9 8 8 9 8 6 4 4 4 4 2 1 0 4 4 4 1 2 3 2 2 3 3 1 4 4 4 2 2 2 2 1 5 6 7 6 4 3 2 3 9 7 5 7 8 10 10 14 14 13 15 17 18
8 7 9 11 10 9 8 7 5 5 6 6 6 8 7 8 8 9 9 9 9 8 8 8 7 6 4 4 4 4 4 2 2 2 6 9 9 9 8 7 6 4 4 4 2 1 2 2 5 3 2 2 1 2 3 2 3 3 2 3 1 2 3 1 1 3 2 7 6 6 4 3 4 1 3 8 7 7 7 8 9 10 16 19 17 16 15 15
9 8 9 12 11 10 8 7 6 5 6 5 6 7 7 7 8 9 9 9 9 8 8 7 7 6 4 5 5 2 3 2 2 4 6 9 9 8 8 6 5 4 4 4 1 3 4 4 4 4 4 2 3 3 2 2 5 5 2 2 2 1 3 1 1 3 4 7 4 4 3 4 6 3 1 5 8 8 7 2 5 11 17 18 15 14 15 17
9 9 10 11 11 10 9 7 7 6 5 5 6 7 7 6 7 9 9 10 9 8 8 7 7 6 6 6 4 3 1 3 4 6 7 9 9 8 8 6 6 5 4 4 1 3 3 4 3 4 4 1 4 3 1 4 5 4 3 3 1 1 1 2 3 5 4 3 1 4 4 3 6 3 1 6 10 8 5 3 6 12 14 13 13 13 13 15
9 9 9 9 10 11 10 8 7 7 6 5 6 8 7 7 8 9 10 10 9 9 8 8 7 6 8 5 4 3 2 4 7 8 8 10 9 8 8 7 7 6 5 3 2 4 2 2 3 4 4 3 4 4 2 4 1 2 5 4 3 1 2 2 3 3 2 1 2 4 0 4 3 1 2 9 9 5 2 6 6 11 12 11 12 13 13 12
9 9 9 9 9 10 10 10 8 6 6 5 6 7 7 8 9 9 10 9 9 8 7 8 8 8 9 4 5 3 3 4 8 8 9 10 10 9 8 7 7 7 5 3 3 5 3 4 4 4 5 2 3 2 1 4 3 3 6 5 4 1 2 1 1 1 2 2 1 4 2 5 3 2 4 9 5 5 6 5 5 9 11 12 11 12 15 15
10 9 9 9 8 9 10 9 8 6 7 5 5 7 7 8 9 9 9 9 9 8 8 8 8 9 8 4 5 3 3 6 8 9 9 10 10 9 8 7 7 7 4 4 5 6 4 5 5 4 3 2 3 2 1 2 3 5 7 5 6 5 2 2 2 1 1 1 1 5 1 5 4 1 6 7 2 6 8 7 6 7 9 10 10 10 12 15
11 9 9 9 8 9 10 9 8 6 6 5 5 6 6 7 8 8 9 9 8 8 8 9 9 10 7 4 3 4 4 7 9 9 10 10 10 9 7 7 7 6 4 4 6 6 4 4 5 5 2 3 4 2 1 2 4 5 6 5 6 8 3 2 1 1 1 1 2 4 2 5 2 6 7 3 2 4 7 7 7 7 7 8 9 8 8 13
11 10 9 9 9 9 10 9 7 6 6 5 5 5 5 7 8 8 8 8 8 9 9 9 10 10 6 2 2 3 5 8 9 10 10 10 10 9 8 7 7 5 3 3 5 6 5 3 5 6 3 6 3 1 3 3 4 3 4 5 2 7 4 5 1 1 1 1 1 3 1 6 7 11 9 5 2 3 5 7 7 7 6 6 7 7 8 12
11 11 10 10 10 10 10 8 7 7 6 4 4 4 5 6 6 7 8 8 9 10 10 10 11 8 4 1 2 3 7 9 9 10 10 10 10 9 8 7 6 5 3 2 5 6 4 4 7 6 3 4 3 2 4 5 3 2 2 3 2 2 3 7 2 3 3 1 3 6 2 6 9 11 9 8 4 6 7 8 7 6 6 5 6 7 8 10
11 11 10 10 11 11 10 9 7 6 6 5 4 5 5 5 6 8 9 9 9 11 11 11 11 7 3 1 1 4 8 8 9 9 10 10 10 8 7 8 6 5 4 4 7 6 4 6 6 5 1 2 5 5 4 4 3 3 2 2 3 2 4 8 2 5 5 1 4 6 2 6 8 10 8 6 1 7 8 7 7 7 7 7 6 7 8 9
10 10 10 11 12 12 11 10 8 7 6 5 4 5 6 7 8 9 9 9 10 11 10 8 8 6 3 1 1 4 6 6 9 9 9 9 8 8 9 9 7 6 6 5 6 4 4 5 3 2 3 3 6 6 4 4 4 3 3 2 2 2 2 4 2 1 2 1 2 2 3 4 4 6 8 6 3 4 5 7 7 7 8 8 7 8 8 9
9 9 9 10 11 12 11 10 8 7 5 4 5 7 8 9 10 10 10 10 11 9 7 5 6 3 2 2 2 3 4 6 9 9 8 7 8 10 9 6 5 6 6 4 4 2 4 5 1 1 3 4 3 5 5 2 2 3 2 1 3 3 2 2 2 3 3 2 1 0 3 6 6 7 9 7 3 2 5 7 8 7 8 8 7 8 8 9
10 10 11 10 11 11 10 9 7 5 5 6 8 10 12 12 12 12 12 13 11 8 6 3 3 2 1 2 3 3 4 7 9 8 8 7 8 8 6 4 5 6 5 4 3 2 3 4 2 1 4 3 2 5 4 4 5 4 2 2 2 2 3 3 3 2 2 1 2 1 3 9 11 10 10 9 3 3 8 8 8 8 8 8 8 8 8 9
10 10 11 11 11 10 9 8 6 5 6 9 12 15 15 13 11 9 9 9 7 4 2 2 3 3 3 4 3 4 7 9 9 7 6 6 7 6 5 5 6 6 5 3 2 2 2 3 4 3 2 2 4 5 7 7 8 8 5 5 4 2 3 4 4 4 1 1 4 5 5 8 10 10 10 11 5 5 8 8 8 9 8 8 8 8 9 9
10 10 11 11 10 9 8 8 7 6 8 13 18 16 11 8 6 3 1 1 2 2 3 4 4 3 1 1 5 9 10 7 5 4 4 5 6 6 5 5 6 6 4 4 2 1 4 4 2 4 7 7 7 7 6 5 6 7 5 5 3 3 2 3 3 4 1 3 5 5 5 8 9 11 12 10 6 5 9 9 10 10 9 9 9 10 11 11
10 10 10 10 9 8 7 6 6 8 11 16 16 9 4 5 4 2 2 2 3 1 1 4 4 3 2 5 9 10 7 4 2 1 4 3 5 6 2 4 5 4 0 4 2 2 5 5 6 7 9 7 6 6 6 6 5 5 6 5 2 2 2 3 2 4 1 2 4 3 4 10 10 11 11 9 7 8 10 10 11 12 11 9 10 12 12 10
10 11 11 9 8 6 5 5 6 8 12 13 9 2 2 2 4 5 5 2 2 2 3 3 3 3 2 6 9 6 5 4 1 1 3 3 3 4 1 4 6 3 0 3 3 3 4 2 9 8 6 4 4 5 7 6 5 5 4 5 2 1 2 3 4 5 3 1 4 5 6 11 10 10 12 11 9 9 9 10 11 11 10 10 11 12 11 10
9 9 9 8 6 5 3 4 6 9 12 9 4 3 2 2 3 5 4 4 1 2 2 1 2 3 2 3 6 4 5 4 4 3 4 4 2 3 4 5 5 4 2 4 5 5 2 5 8 5 5 7 6 4 7 6 4 4 4 4 2 2 1 2 4 4 3 2 2 4 6 10 8 6 10 10 8 8 7 8 10 9 10 12 11 9 10 11
8 8 8 6 5 4 3 2 5 9 10 7 4 4 4 4 3 4 2 4 2 1 1 1 2 4 3 3 6 5 4 3 4 4 5 6 4 3 4 5 5 4 3 5 8 7 5 6 3 5 5 6 6 4 6 6 1 1 3 5 3 3 3 3 2 2 3 4 3 4 6 7 5 5 7 7 4 6 5 5 8 8 9 11 10 10 10 11
10 9 8 7 5 4 3 2 3 8 9 5 3 2 2 3 2 3 2 3 1 1 2 2 1 3 5 5 6 5 3 1 0 2 5 7 6 3 3 3 4 4 5 6 8 5 5 5 2 7 5 4 6 2 3 7 2 3 2 5 6 6 6 2 2 4 4 4 4 5 4 6 5 4 7 6 6 7 5 5 8 8 7 8 9 11 10 9
10 10 9 8 6 4 2 1 3 8 8 3 1 1 0 1 2 4 4 4 1 2 1 3 2 5 7 4 4 4 4 1 2 1 4 5 3 3 3 1 2 4 6 6 4 3 2 2 4 6 5 6 6 2 3 5 5 1 4 5 6 7 7 4 2 4 2 3 3 4 4 5 7 5 8 6 7 9 8 6 9 9 8 7 7 8 7 7
6 10 11 8 6 5 2 2 5 7 5 2 3 3 2 2 3 3 5 5 3 2 4 1 1 6 8 4 4 6 4 4 1 3 3 3 1 3 4 4 2 2 3 4 2 2 2 3 6 6 6 6 4 2 4 6 7 3 3 6 7 7 7 5 4 3 2 3 4 4 4 2 6 5 7 5 6 10 10 9 11 9 8 8 7 7 7 7
3 7 11 9 7 6 3 3 6 5 2 1 4 5 4 4 3 2 5 2 2 2 4 2 0 5 4 2 4 5 2 3 5 1 2 3 1 4 4 5 5 4 2 5 4 4 1 3 3 5 6 3 4 4 4 7 6 4 4 7 6 6 6 5 6 3 1 2 4 5 2 2 6 7 5 5 5 8 9 10 11 9 8 9 8 7 7 7
3 4 9 11 9 7 4 2 5 5 3 2 4 6 6 4 2 4 4 2 1 2 1 1 3 3 2 4 4 3 1 2 3 3 2 3 1 3 4 5 6 7 4 5 6 3 1 3 5 7 5 4 4 3 4 5 3 3 5 7 5 6 6 5 5 3 3 2 5 6 2 2 5 7 4 3 3 6 8 8 8 8 7 7 7 6 6 6
1 3 6 11 9 7 5 2 3 5 4 3 5 8 7 3 2 5 2 3 2 1 0 2 2 2 6 7 3 2 3 2 1 1 2 1 2 5 2 3 6 7 5 6 4 1 2 1 2 4 3 5 5 2 2 3 4 6 6 7 6 6 5 4 3 4 3 3 6 7 3 2 4 7 4 3 4 4 3 5 7 7 7 7 7 6 6 6
2 4 6 9 9 8 6 1 2 4 4 4 7 8 5 3 3 4 5 4 3 2 1 2 1 4 11 11 4 1 3 3 0 4 3 1 2 3 2 2 4 5 4 4 3 4 4 3 1 1 1 4 6 5 3 3 4 6 5 5 4 4 5 4 4 4 1 5 6 5 2 3 4 6 4 5 7 4 3 3 7 8 7 7 6 5 5 5
3 5 6 8 9 9 6 3 3 4 4 6 7 5 4 3 1 4 3 1 2 3 4 4 3 5 10 8 5 4 4 2 1 4 5 3 3 3 3 4 4 3 1 2 1 3 2 1 3 3 1 4 6 5 4 6 5 6 5 6 4 2 3 3 3 1 3 6 4 3 1 3 6 8 8 11 10 5 6 6 5 5 6 7 6 6 5 5
2 3 4 6 8 8 7 6 3 3 4 6 6 4 5 4 6 5 2 1 1 3 3 4 3 6 9 7 5 4 3 2 3 3 3 4 4 4 3 3 6 5 3 4 4 2 1 4 3 1 2 2 6 6 3 0 1 4 5 5 4 3 1 3 4 2 4 5 3 3 2 3 4 4 8 13 10 4 6 7 6 4 5 6 6 6 6 6
2 1 2 4 6 7 8 7 3 2 5 5 4 4 4 5 5 4 4 3 1 2 2 4 7 7 7 5 5 5 3 1 4 5 3 4 5 5 5 3 3 5 4 4 4 5 4 4 4 4 2 4 6 5 6 6 4 4 4 6 5 5 5 4 4 3 4 3 3 3 2 3 2 2 5 9 8 4 4 6 6 5 5 4 5 6 6 6
2 2 2 3 5 5 7 6 3 4 5 4 5 5 7 7 3 3 5 4 1 2 3 4 8 8 4 1 2 6 3 2 4 5 4 5 5 6 5 5 5 4 5 5 2 2 4 4 6 2 1 6 7 4 4 7 2 2 3 5 3 5 5 2 3 5 3 1 3 2 3 4 3 6 8 5 6 5 3 4 5 5 6 5 6 6 5 6
2 2 3 4 4 6 6 4 2 4 4 4 5 6 6 5 3 3 4 3 3 5 7 4 4 5 4 1 2 6 2 3 4 4 3 3 3 5 6 5 7 7 6 6 3 1 3 4 5 2 2 3 5 3 3 4 3 2 2 3 5 4 7 4 2 1 3 2 4 2 4 5 3 7 9 4 5 6 3 4 5 5 6 4 4 6 5 6
2 2 3 4 4 6 7 5 3 2 3 4 6 7 2 1 3 3 1 1 4 7 9 4 2 4 5 3 4 6 2 3 4 3 3 3 2 5 6 3 5 10 8 4 3 3 5 2 4 1 2 3 1 3 2 2 4 5 3 6 3 2 4 4 1 3 3 2 5 2 4 5 2 4 7 6 4 6 4 5 3 3 3 2 4 5 6 6
2 2 1 2 5 7 9 9 7 3 4 3 6 5 0 1 2 2 0 1 4 5 6 5 3 3 5 4 4 6 4 3 5 4 3 4 4 5 8 3 4 10 9 4 2 3 5 2 5 1 3 4 4 3 1 3 3 5 4 4 4 2 1 1 2 1 1 2 5 4 4 5 4 5 5 3 4 6 3 5 4 3 3 2 4 6 7 6
1 2 1 1 6 8 10 12 8 5 3 2 6 4 1 2 3 3 1 2 3 4 4 4 2 3 5 6 5 6 5 5 7 5 3 4 4 4 8 6 4 9 9 6 4 3 4 4 4 1 1 1 3 2 4 1 2 3 2 2 3 2 4 3 3 3 3 3 3 4 4 4 6 6 6 7 9 6 2 7 5 2 1 1 3 5 6 5
1 2 1 3 7 8 12 12 6 4 2 3 4 2 2 1 3 4 2 2 2 2 2 3 3 4 5 4 4 5 5 5 8 6 3 5 5 4 6 6 4 6 7 6 5 2 3 3 4 2 2 1 2 3 6 7 5 3 3 4 2 1 2 2 1 3 4 4 3 3 5 6 5 4 8 9 8 5 6 7 6 2 2 3 3 3 4 4
1 2 1 3 8 10 12 8 3 3 2 3 2 2 2 1 2 2 1 2 2 1 2 3 3 4 4 4 3 4 4 4 6 5 3 5 5 3 5 7 6 7 6 5 5 3 2 3 4 2 1 3 5 5 6 9 7 6 6 7 6 4 4 3 2 1 2 3 4 3 6 8 5 4 6 6 5 5 7 7 5 3 3 4 4 4 4 4
2 2 1 5 12 13 9 3 1 3 3 3 2 2 1 0 1 1 1 2 1 0 1 3 2 2 3 3 3 5 6 4 5 5 3 5 6 4 3 4 7 9 8 5 6 4 3 4 4 3 3 6 7 5 3 5 3 3 3 5 5 4 4 6 5 3 1 2 3 3 4 6 4 6 6 6 7 6 6 7 6 4 5 5 4 4 3 2
2 1 1 5 12 12 5 2 3 3 3 2 1 1 2 1 1 1 1 1 1 1 1 1 1 1 1 1 2 5 6 4 5 6 3 3 5 5 2 2 6 8 7 4 4 3 2 4 4 1 3 4 5 4 2 1 1 2 2 2 4 3 3 5 5 4 3 4 3 3 5 6 1 2 4 5 5 4 4 6 5 1 3 2 3 3 4 5
1 1 1 2 8 8 4 3 5 5 4 3 3 3 3 2 3 2 2 2 2 2 2 1 1 1 1 2 3 4 5 3 4 5 2 3 4 2 2 2 6 8 5 4 5 5 4 3 4 3 1 3 4 3 2 3 0 3 3 3 5 5 6 4 2 3 2 6 7 5 8 7 3 2 3 3 1 1 1 2 2 6 6 7 8 8 8 9
1 0 1 1 2 3 2 2 3 4 5 5 6 6 5 3 4 5 5 3 3 4 3 1 1 3 2 2 3 1 2 2 3 4 3 3 2 2 5 3 3 6 4 2 5 6 5 4 5 6 6 6 5 5 5 2 2 2 2 5 6 7 8 5 2 3 5 6 7 6 9 8 2 3 5 5 4 4 5 6 6 7 7 6 6 6 7 8
1 1 0 1 3 1 0 0 2 3 5 6 5 5 7 5 3 2 4 4 3 4 3 1 2 3 1 1 2 1 1 3 2 3 3 3 3 2 2 4 3 4 4 2 4 4 4 2 5 8 9 9 8 7 6 5 6 5 6 8 8 8 10 7 3 5 8 5 4 7 10 12 10 4 4 3 4 4 6 7 7 6 4 5 6 5 6 6
1 1 2 2 1 1 1 1 1 2 3 6 4 4 8 8 2 1 3 3 3 4 3 1 3 3 3 4 3 2 1 2 2 2 3 3 3 2 1 3 4 1 1 2 3 4 5 2 5 7 7 7 6 6 5 6 8 10 9 8 8 8 10 10 8 11 8 4 9 12 8 11 18 11 6 3 5 4 4 3 4 5 5 6 6 5 6 7
0 0 1 2 1 3 4 3 5 3 2 4 4 3 7 9 6 4 3 2 2 3 2 1 4 7 8 7 4 2 3 2 0 2 3 2 1 1 3 2 2 3 2 2 2 3 5 3 4 5 3 4 5 5 5 5 5 6 6 7 8 8 10 13 16 15 10 8 12 9 6 10 18 12 4 6 7 6 5 5 5 4 5 7 6 7 8 7
1 1 2 1 2 2 3 3 5 5 3 4 3 3 8 11 11 7 3 3 2 3 4 4 5 8 8 7 6 4 4 4 3 4 4 2 2 2 1 1 1 3 3 3 1 2 4 2 2 4 2 3 5 5 5 5 3 3 5 7 8 9 12 14 14 11 7 7 10 7 4 11 15 9 2 6 7 7 6 5 3 1 2 5 6 8 9 7
2 1 1 2 3 1 0 3 6 5 4 4 3 3 6 10 13 9 4 5 7 5 6 9 8 7 8 8 8 7 7 7 6 5 5 4 1 1 2 2 1 4 5 1 1 1 2 2 2 4 1 4 6 6 5 6 5 4 5 7 8 10 11 10 7 5 3 6 10 7 8 14 11 6 6 5 5 5 8 6 3 2 4 7 7 7 7 7
3 1 2 2 2 0 1 2 5 5 4 5 5 5 5 8 11 9 3 4 8 7 9 13 10 6 5 7 9 10 10 9 10 10 9 8 5 5 4 3 4 3 3 1 1 2 1 1 2 4 1 5 5 5 5 6 5 4 7 10 13 12 9 7 5 6 7 8 9 6 7 13 8 2 6 4 5 6 8 6 3 1 4 3 2 4 6 6
4 2 2 3 1 1 2 2 4 5 5 7 8 7 5 5 5 8 5 4 6 8 9 12 9 5 5 9 12 12 9 7 7 7 6 6 4 5 5 5 7 7 5 4 1 1 3 2 1 3 2 6 4 2 4 5 4 6 11 14 15 12 10 8 6 8 11 10 7 7 8 11 7 2 5 8 4 2 3 4 1 1 2 4 5 4 6 6
Wind_Direction
212 201 184 185 184 177 173 159 149 160 171 182 182 178 179 181 184 189 190 190 194 195 196 199 195 189 190 193 201 179 171 172 165 171 181 190 192 203 225 213 205 196 192 193 184 174 178 302 266 273 79 145 17 234 320 9 69 56 88 99 135 196 216 174 176 190 165 164 197 215 170 136 159 235 209 42 51 73 55 26 354 360 15 12 169 149 156 165
213 203 188 186 187 183 177 161 153 165 176 186 186 185 186 188 191 193 194 192 190 191 194 199 195 189 192 194 196 163 163 166 162 196 200 185 187 212 217 199 191 188 187 181 177 157 111 351 338 49 77 115 320 345 350 359 86 93 111 97 209 212 197 195 187 189 177 163 176 189 167 152 175 179 136 130 135 109 89 12 355 19 17 36 115 140 151 162
210 201 188 185 190 187 182 173 167 175 181 188 191 194 195 195 196 197 198 194 190 191 194 198 196 190 191 194 192 160 156 144 149 227 202 191 196 205 194 188 188 185 185 175 177 174 153 272 343 75 74 24 306 15 63 16 97 155 110 92 234 219 200 213 164 190 243 178 156 171 169 165 198 171 146 164 164 161 162 184 85 54 215 129 137 147 153 163
206 198 187 185 190 187 184 182 178 180 183 189 195 199 201 201 202 202 200 196 192 193 196 196 194 192 191 191 168 166 143 113 187 222 191 197 200 191 186 185 184 182 191 187 195 219 249 289 102 110 84 14 321 15 175 273 182 134 102 162 219 186 145 280 148 266 278 156 149 149 136 186 229 173 169 147 141 241 237 210 193 189 182 167 170 163 160 165
202 196 184 183 188 187 185 187 185 183 185 192 199 202 203 204 205 202 199 199 197 196 198 195 192 192 190 174 160 169 124 100 220 204 180 189 183 183 181 181 182 187 193 192 212 221 269 72 103 91 76 147 338 26 246 249 115 76 359 208 197 143 134 274 279 319 36 107 113 128 143 188 173 142 173 151 156 228 230 216 205 181 169 171 172 170 168 170
200 194 183 182 185 187 189 191 190 191 193 195 199 202 204 205 202 197 198 200 200 199 197 192 186 189 186 163 169 169 120 136 226 155 176 178 172 179 173 176 182 186 189 186 216 132 107 74 89 109 79 103 171 173 224 278 84 96 287 268 245 169 149 199 305 340 108 118 124 151 169 151 122 224 190 165 195 226 222 210 202 178 169 170 163 165 171 177
198 191 185 186 188 188 191 193 193 196 196 195 197 200 205 210 200 193 196 200 203 200 192 188 183 184 168 149 156 119 101 209 227 160 175 173 172 174 165 178 180 181 191 173 134 99 110 77 99 148 98 81 184 193 201 25 52 98 179 290 350 117 121 156 113 46 89 124 165 163 128 138 155 201 151 195 231 240 255 245 162 163 161 159 159 172 181 183
197 194 195 198 200 196 192 191 196 198 194 193 197 199 203 209 198 190 194 201 203 197 189 181 178 174 159 154 139 72 40 227 192 167 171 172 174 166 165 178 174 183 184 171 137 127 117 87 145 158 106 191 182 170 128 68 38 90 159 234 16 43 346 336 68 66 63 96 120 108 118 199 190 178 153 233 243 243 261 38 104 141 147 158 170 182 186 190
200 202 207 208 212 208 197 194 197 199 196 194 199 202 202 201 196 190 192 199 199 194 184 174 175 164 159 158 109 102 227 202 168 166 166 169 170 165 170 174 172 181 170 178 179 139 128 130 193 176 156 212 158 146 128 101 254 171 144 170 131 52 295 357 55 57 53 26 25 110 141 297 245 239 265 243 236 222 146 85 116 137 148 174 179 185 188 194
201 207 211 214 222 214 201 196 198 202 198 198 206 205 203 199 194 190 190 194 196 188 177 172 168 155 163 154 92 137 221 179 165 164 162 166 166 169 174 173 174 179 166 162 162 147 146 173 189 154 142 154 114 119 110 127 185 153 118 113 93 58 297 19 76 336 31 6 4 149 233 307 322 344 265 261 240 152 127 124 154 150 165 185 185 193 193 196
202 210 214 220 227 209 199 199 203 208 200 201 213 208 206 201 195 191 188 189 190 180 171 169 159 153 164 141 112 179 204 166 169 161 161 165 163 171 176 179 176 175 172 139 162 170 158 175 164 129 133 129 103 48 352 135 122 124 116 85 18 3 340 41 108 235 18 45 130 129 140 315 350 334 235 267 262 153 156 161 179 176 183 190 190 198 196 205
207 212 215 224 225 201 196 202 205 208 204 204 207 205 203 199 195 192 185 185 183 171 167 162 155 155 142 97 137 189 171 162 166 158 163 164 163 174 173 177 181 180 182 147 176 183 163 183 133 114 176 142 116 67 148 121 98 117 106 92 346 3 6 294 128 264 25 135 205 120 23 303 264 231 239 307 15 158 168 178 194 201 202 196 196 200 203 215
207 212 220 228 223 201 198 204 206 205 201 201 198 200 205 200 196 188 178 179 173 162 162 156 157 159 131 90 203 180 168 166 162 156 159 160 160 170 169 171 179 182 187 166 184 172 158 196 128 123 136 114 131 184 120 69 88 122 80 97 13 14 350 289 334 21 118 158 251 114 269 275 253 248 260 313 342 138 179 206 209 213 218 210 204 206 215 218
205 210 220 226 214 198 201 202 200 195 191 202 207 209 209 194 182 174 168 170 164 155 157 154 158 161 126 139 209 176 178 167 159 155 151 153 150 153 161 162 165 175 185 168 162 153 148 160 119 107 102 102 135 120 59 25 50 104 75 70 55 85 277 297 324 123 145 226 65 100 203 263 273 275 279 291 251 171 200 225 219 225 233 228 221 218 227 224
208 211 215 216 204 196 200 198 192 187 188 206 215 207 193 172 164 160 159 160 154 152 153 151 156 150 95 345 227 164 173 165 162 159 150 152 145 141 151 150 146 147 151 145 144 140 141 145 105 84 91 35 76 85 44 6 19 52 100 325 349 148 256 303 299 153 159 270 54 98 215 270 280 278 284 304 196 173 207 229 227 231 232 231 232 226 232 236
211 214 208 201 197 196 195 191 189 188 195 207 194 173 155 147 148 145 149 148 143 147 144 147 162 145 107 139 140 147 170 178 170 161 152 154 149 139 136 135 130 131 137 133 133 127 104 100 69 95 129 63 77 94 62 27 353 3 102 201 260 158 254 305 310 218 163 205 9 91 213 269 281 264 285 330 71 152 220 244 245 237 235 231 227 227 230 238
211 199 177 175 184 188 187 182 182 186 189 181 152 140 134 134 135 133 136 134 131 129 115 135 170 140 89 102 124 165 189 184 174 163 152 148 146 142 133 122 115 120 120 103 108 95 51 50 41 166 75 69 103 96 76 36 285 303 40 178 232 172 179 272 276 314 43 128 263 63 210 251 265 272 292 316 39 136 235 249 251 242 243 241 232 235 233 234
193 178 162 165 174 177 182 178 180 188 169 150 139 131 125 121 120 123 128 127 117 95 76 99 143 129 235 196 171 180 170 166 167 160 150 144 142 138 124 107 107 101 79 54 52 43 27 23 56 89 34 50 108 94 115 207 197 193 193 168 240 209 185 235 238 264 39 72 246 215 242 258 268 281 289 291 292 220 245 248 250 248 244 247 245 242 240 239
174 167 164 166 170 174 183 177 175 179 153 139 135 126 115 108 105 110 123 126 114 94 112 176 146 149 212 206 171 126 133 149 155 154 148 142 143 128 96 90 89 88 86 72 23 12 66 51 63 108 142 172 179 155 162 193 175 170 176 147 158 185 226 240 247 259 156 125 257 232 235 259 272 281 279 279 265 215 250 261 259 259 252 250 251 248 246 243
164 160 159 160 166 172 176 172 167 160 147 144 140 128 117 113 94 77 103 169 179 184 207 196 155 138 132 138 134 121 120 124 134 156 149 144 145 123 75 50 48 55 95 144 159 9 84 101 150 184 193 194 194 182 154 152 143 136 125 108 140 164 236 256 262 284 163 146 257 242 247 261 263 269 267 273 282 249 250 254 254 255 252 249 247 248 248 243
154 158 156 155 159 162 161 155 151 152 151 153 151 139 148 156 120 155 221 271 253 256 200 176 132 105 106 128 142 138 118 84 49 124 148 152 133 129 70 28 71 64 119 160 146 23 67 120 209 218 204 192 186 170 125 105 90 95 120 111 84 155 221 256 251 288 346 147 266 324 311 271 256 263 268 266 268 257 241 238 246 247 246 249 247 249 249 249
152 157 154 151 145 142 147 146 154 162 157 158 162 154 181 164 120 146 149 145 259 1 63 140 93 56 70 133 154 144 87 85 78 302 187 149 91 139 144 63 115 153 203 115 92 41 53 193 233 230 195 135 104 139 118 100 92 83 110 120 112 212 250 294 299 311 1 108 273 344 332 281 266 258 262 257 247 251 242 230 239 245 248 249 245 247 251 258
164 165 160 156 145 138 148 157 162 162 159 159 152 124 116 73 116 141 116 109 175 353 63 147 110 102 79 138 183 147 91 131 168 238 213 146 102 151 130 100 131 140 114 133 133 124 127 246 241 208 157 109 79 109 115 97 84 88 107 128 191 251 167 276 297 315 357 52 283 336 317 284 286 279 268 262 250 256 257 241 240 242 242 246 248 249 247 250
194 192 189 175 162 165 164 155 158 162 168 160 117 100 77 62 130 163 88 86 150 246 257 228 151 156 156 160 181 154 116 143 159 192 195 151 135 136 138 137 130 127 162 159 142 150 200 253 229 119 121 123 103 89 117 126 80 15 132 140 175 207 171 199 281 331 358 11 20 9 331 293 312 331 290 288 286 271 284 287 266 251 243 250 262 260 247 244
202 202 203 194 176 162 148 131 155 164 170 161 118 90 53 58 103 156 90 73 156 308 323 242 181 187 179 141 164 166 124 97 147 200 185 155 140 130 157 146 121 160 185 141 129 160 229 262 143 112 90 101 119 125 160 153 153 312 223 173 173 166 157 174 4 41 37 350 342 30 10 293 310 322 280 299 331 301 308 318 281 271 262 248 251 256 251 252
193 189 191 201 188 163 158 126 139 153 160 182 181 151 175 83 109 146 97 56 268 267 142 178 159 176 175 144 163 150 105 176 304 49 136 149 153 112 134 134 87 172 172 135 131 168 237 336 73 119 109 91 107 155 209 145 116 278 240 176 152 129 128 140 76 62 81 257 301 57 103 267 300 293 265 293 326 308 312 310 283 282 282 261 253 263 262 256
174 186 189 197 182 170 186 144 142 148 149 210 211 188 196 144 134 145 81 46 281 202 142 194 324 163 171 172 161 137 154 204 107 60 93 127 202 56 112 175 125 147 164 120 122 217 183 54 56 81 86 92 115 176 209 131 114 235 236 135 126 123 136 145 107 98 212 242 322 18 114 242 292 265 264 306 324 314 314 302 288 286 291 289 281 274 265 252
104 176 189 193 181 177 180 129 141 144 122 175 198 199 181 145 148 102 83 96 247 141 137 228 124 145 155 115 104 113 185 178 120 192 330 82 130 46 96 188 159 131 112 117 168 253 158 134 146 114 87 112 174 212 199 120 102 242 205 128 130 131 135 123 98 95 13 17 316 314 122 191 276 271 297 338 319 302 296 285 288 297 305 306 300 285 274 271
72 132 178 190 189 186 185 122 122 117 84 105 176 188 170 152 147 74 84 170 196 78 119 152 128 140 127 83 59 56 61 52 115 214 341 74 74 48 118 187 142 113 53 97 162 232 61 180 186 135 120 176 195 231 202 134 109 193 135 97 76 74 79 78 90 98 41 22 254 255 198 189 268 285 310 341 289 268 273 278 286 297 309 321 328 319 304 307
89 98 151 173 175 181 191 179 128 113 84 98 158 167 155 128 99 107 159 213 149 78 10 139 160 161 141 128 56 15 85 48 58 98 35 52 19 28 106 138 99 97 33 42 97 242 322 278 181 116 139 178 153 133 173 148 131 126 95 64 46 32 35 43 58 81 64 299 253 243 226 173 272 281 255 220 225 219 253 309 315 322 335 344 345 337 325 326
120 115 133 160 163 168 174 176 186 153 102 116 149 149 130 64 71 140 199 217 128 98 105 150 202 150 152 153 142 109 91 48 115 129 120 130 44 42 112 106 70 71 40 39 42 330 354 32 346 300 161 128 100 75 36 17 71 94 83 75 63 355 9 20 1 41 117 257 262 256 225 150 221 260 251 245 257 235 194 287 319 332 335 331 321 307 307 311
119 141 145 167 167 164 164 152 180 174 130 131 143 129 91 83 188 195 209 232 157 177 171 175 201 165 157 145 128 148 124 84 165 146 143 146 149 171 166 165 145 96 150 179 87 342 17 39 291 309 250 137 102 76 30 4 32 76 91 94 90 341 6 354 311 334 222 247 268 273 218 188 229 250 254 258 265 240 193 226 283 312 311 311 302 289 293 297
112 150 150 171 167 154 152 146 147 171 152 140 133 80 75 139 212 206 191 268 196 166 150 136 131 147 147 136 145 158 107 119 182 153 141 136 158 206 234 183 144 119 182 183 125 126 284 311 308 5 300 187 132 127 133 245 124 130 138 132 131 131 129 259 271 282 261 261 280 283 261 261 274 269 247 251 261 231 191 232 252 235 243 271 284 293 299 297
82 121 123 168 173 153 145 153 156 151 150 140 116 93 123 189 213 155 162 228 194 78 77 116 114 129 143 141 180 175 95 121 179 139 135 131 147 204 232 229 152 101 111 148 148 165 179 279 239 174 214 190 168 175 160 150 161 176 156 137 149 159 162 207 219 215 246 276 296 292 260 211 206 295 247 240 263 264 219 250 263 246 247 266 296 305 302 299
96 120 98 131 183 166 137 148 160 143 144 120 105 139 182 202 205 140 174 200 168 59 46 94 114 130 156 76 214 199 139 157 184 134 152 168 168 194 194 200 193 132 124 157 191 160 155 247 252 243 176 165 177 215 134 116 130 225 128 109 170 188 147 139 192 179 178 287 295 259 237 216 202 280 278 250 269 283 272 295 320 317 308 337 333 307 304 310
97 111 106 116 177 177 147 149 154 134 123 100 133 186 204 202 188 183 187 158 146 132 109 88 91 130 172 134 203 222 149 120 159 144 180 193 188 197 190 202 195 171 157 156 170 161 137 267 281 347 8 170 171 183 130 134 178 179 143 179 219 178 118 112 240 38 81 249 270 215 248 290 328 297 298 328 299 287 333 4 353 320 309 331 316 294 308 320
81 99 111 109 133 166 173 190 201 147 86 102 171 200 210 200 180 179 242 111 142 135 125 135 142 145 168 161 194 212 173 111 156 164 191 198 222 198 190 234 201 183 188 155 168 197 151 236 293 110 187 267 199 125 71 41 135 129 185 211 201 94 83 106 197 352 36 250 274 248 239 279 316 279 309 12 335 290 342 36 33 349 333 318 298 301 316 319
57 93 77 119 135 156 172 174 170 137 69 113 196 210 129 200 198 164 350 114 135 125 129 161 167 143 167 176 190 194 174 160 175 178 175 192 245 199 170 201 204 193 202 162 162 217 145 182 302 55 179 288 358 105 79 346 93 131 189 179 116 129 186 109 156 196 176 243 279 289 268 254 207 225 279 319 285 281 350 78 95 61 42 3 341 335 332 335
55 98 9 175 141 153 172 165 149 105 65 179 204 220 215 221 248 223 167 57 75 110 148 183 166 130 172 174 169 180 184 175 173 180 178 184 238 218 174 182 199 197 198 162 162 206 139 170 261 295 204 312 19 146 194 245 52 73 109 115 93 142 167 164 160 162 176 206 260 299 312 268 224 207 209 230 250 251 140 125 142 124 9 319 349 339 324 323
63 92 334 180 142 151 164 154 129 96 106 216 196 201 235 248 279 251 186 95 50 97 166 198 159 145 170 169 160 175 181 168 169 184 200 183 208 239 201 188 177 182 183 165 172 176 114 167 217 284 317 188 185 205 186 174 161 148 162 171 172 110 116 164 172 125 142 167 204 278 294 267 249 204 183 205 234 223 153 149 179 224 295 287 297 295 278 267
22 83 244 173 149 149 144 135 122 127 154 251 215 186 229 286 316 296 198 139 131 116 140 145 150 157 158 157 174 179 157 150 171 182 207 195 190 225 217 191 163 148 145 163 193 189 146 161 169 176 226 200 228 243 196 187 180 165 181 195 184 157 125 146 234 257 124 166 179 194 275 267 237 199 191 185 185 180 159 154 180 226 252 266 272 260 252 265
54 111 181 161 159 154 133 120 170 140 172 238 203 162 163 86 291 278 49 70 86 30 83 104 132 159 154 159 169 163 149 149 179 182 193 201 189 196 218 180 155 150 145 166 201 191 128 106 126 174 216 216 242 266 218 212 203 137 183 197 169 153 135 149 207 240 186 225 170 131 277 274 200 178 183 158 153 163 165 155 157 197 217 222 238 229 222 268
87 128 98 140 166 167 139 148 179 166 202 203 134 164 166 166 245 203 136 61 72 114 82 81 165 134 146 151 136 160 162 156 181 188 193 202 202 218 233 141 145 150 144 159 188 175 126 107 127 216 300 308 307 325 3 13 121 162 239 173 148 169 151 148 180 180 172 215 166 128 256 269 270 172 149 136 160 159 159 166 145 115 280 307 351 6 12 354
139 188 33 119 179 186 173 180 184 188 195 156 155 191 186 212 243 224 205 196 155 137 133 189 195 124 131 108 115 173 184 167 185 193 179 180 204 247 13 84 151 155 162 187 179 177 193 169 134 123 6 337 334 324 320 334 260 199 227 195 170 148 112 107 145 131 206 225 179 177 241 254 310 11 86 73 68 95 99 199 56 25 8 5 9 6 358 354
88 91 359 352 223 200 193 193 173 176 173 161 175 180 170 211 239 222 207 189 165 161 160 192 140 109 124 86 74 129 150 121 172 183 158 182 232 352 14 7 140 159 197 219 165 170 183 177 156 155 181 206 209 212 220 221 181 203 220 198 188 161 148 155 149 153 229 231 175 189 241 247 272 68 69 34 23 12 352 350 4 18 23 2 345 337 333 336
112 127 315 344 351 359 262 24 107 159 177 171 176 177 177 196 243 217 188 185 193 174 156 163 105 88 90 127 112 160 112 59 100 146 146 178 232 305 352 2 56 138 170 108 106 139 142 179 192 183 200 208 197 210 212 155 150 198 213 192 188 186 178 167 142 190 218 222 202 225 240 253 257 202 120 23 6 339 331 346 343 338 340 315 297 294 307 309
107 148 171 153 19 290 257 278 181 181 185 178 179 179 183 194 217 188 188 202 197 171 145 128 145 159 191 167 152 193 181 60 61 127 152 185 224 284 335 42 50 54 178 81 54 95 114 206 209 183 212 215 174 182 186 152 173 200 199 186 185 188 180 176 198 215 204 196 241 239 219 246 261 243 184 228 277 277 274 277 283 283 285 296 302 301 297 291
183 29 203 147 115 199 214 219 196 187 176 181 188 175 181 193 195 185 199 207 168 170 169 182 191 194 186 162 155 179 154 130 223 184 178 190 183 2 352 16 24 342 7 62 27 91 125 207 215 161 199 215 166 159 151 145 172 177 164 171 177 178 180 193 214 219 194 196 242 245 179 221 259 263 182 185 238 256 239 222 233 261 292 312 319 304 292 289
153 347 286 2 62 202 208 159 161 176 182 173 184 178 178 192 200 197 172 133 165 206 198 210 218 203 188 168 164 180 175 179 220 210 182 170 137 104 39 285 273 354 43 105 86 97 135 198 198 143 158 222 205 187 155 142 138 133 160 174 173 185 196 205 220 221 201 227 261 276 246 245 260 272 225 185 225 263 261 232 232 256 274 280 280 278 286 298
155 208 270 28 31 330 19 115 146 177 195 181 209 220 189 195 200 198 173 162 183 194 195 212 215 189 189 186 175 196 206 195 217 226 168 145 166 173 173 198 184 16 14 78 135 54 166 194 139 114 111 252 220 192 168 157 164 201 220 206 197 205 211 214 224 207 179 252 267 279 283 273 265 265 270 237 190 238 271 284 350 67 194 228 251 275 299 322
177 67 101 90 17 277 157 118 141 167 195 200 210 208 202 211 201 188 200 210 194 181 188 206 203 165 178 192 187 208 216 200 214 225 196 184 202 200 200 195 148 98 22 338 356 19 124 164 68 89 131 254 227 191 182 150 142 207 242 233 222 216 212 210 203 188 189 225 251 262 269 271 266 232 272 271 150 191 268 307 9 118 200 219 324 334 328 335
181 19 73 106 32 260 181 129 148 174 199 210 212 203 198 213 187 172 195 236 210 202 199 196 182 143 164 196 202 211 204 182 202 220 202 187 175 172 187 180 164 164 170 164 140 34 132 133 79 115 191 262 271 179 155 126 135 230 242 235 230 229 228 224 218 215 208 203 223 238 238 258 275 221 251 280 272 211 286 320 295 171 86 52 42 10 336 328